Albuquerque Double Eagle, NM

6:50 AM MST on November 22, 2017 (GMT -0700)
Double Eagle Ii

Weather History for KAEG - March, 2013

Change the Weather History Date:

Sunday, March 31, 2013

  Actual Average (KABQ) Record (KABQ)
Temperature  
Mean Temperature 54 °F -  
Max Temperature 66 °F 66 °F 81 °F (1946)
Min Temperature 41 °F 33 °F 20 °F (1938)
Degree Days  
Heating Degree Days 12    
Growing Degree Days 4 (Base 50)    
Moisture  
Dew Point 22 °F    
Average Humidity 32    
Maximum Humidity 50    
Minimum Humidity 19    
Precipitation  
Precipitation 0.00 in - - ()
Sea Level Pressure  
Sea Level Pressure 30.11 in    
Wind  
Wind Speed 7 mph (West)    
Max Wind Speed 15 mph    
Max Gust Speed 18 mph    
Visibility 10 miles    
Events      
Averages and records for this station are not official NWS values.
T = Trace of Precipitation, MM = Missing Value Source: NWS Daily Summary

Daily Weather History Graph

Daily Weather History Graph

Search for Another Location

Airport or City:

Trip Planner

Search our weather history database for the weather conditions in past years. The results will help you decide how hot, cold, wet, or windy it might be!

Date:

Astronomy

Mar. 31, 2013 Rise Set
Actual Time 6:54 AM MDT 7:28 PM MDT
Civil Twilight 6:29 AM MDT 7:53 PM MDT
Nautical Twilight 5:59 AM MDT 8:23 PM MDT
Astronomical Twilight 5:28 AM MDT 8:54 PM MDT
Moon No Moon Rise 9:54 AM MDT (3/31)
Length of Visible Light 13h 24m
Length of Day
12h 33m
Waning Gibbous, 77% of the Moon is Illuminated
Mar 31
Waning Gibbous
Apr 2
Last Quarter
Apr 10
New
Apr 18
First Quarter
Apr 25
Full

Hourly Weather History & Observations

Time (MDT) Temp. Windchill Dew Point Humidity Pressure Visibility Wind Dir Wind Speed Gust Speed Precip Events Conditions
12:15 AM 51.8 °F - 23.0 °F 33% 30.12 in 10.0 mi West 10.4 mph - N/A   Mostly Cloudy
12:35 AM 50.0 °F - 21.2 °F 32% 30.11 in 10.0 mi West 12.7 mph - N/A   Partly Cloudy
12:55 AM 50.0 °F - 23.0 °F 35% 30.11 in 10.0 mi West 10.4 mph - N/A   Clear
1:15 AM 48.2 °F - 21.2 °F 34% 30.11 in 10.0 mi West 9.2 mph - N/A   Scattered Clouds
1:35 AM 48.2 °F - 21.2 °F 34% 30.11 in 10.0 mi West 8.1 mph - N/A   Mostly Cloudy
1:55 AM 50.0 °F - 23.0 °F 35% 30.12 in 10.0 mi ENE 5.8 mph - N/A   Scattered Clouds
2:15 AM 50.0 °F - 23.0 °F 35% 30.12 in 10.0 mi Calm Calm - N/A   Scattered Clouds
2:35 AM 48.2 °F - 21.2 °F 34% 30.12 in 10.0 mi Calm Calm - N/A   Scattered Clouds
2:55 AM 48.2 °F - 21.2 °F 34% 30.12 in 10.0 mi Calm Calm - N/A   Clear
3:15 AM 41.0 °F 38.0 °F 17.6 °F 39% 30.12 in 10.0 mi North 4.6 mph - N/A   Clear
3:35 AM 42.8 °F 40.1 °F 17.6 °F 36% 30.11 in 10.0 mi NNW 4.6 mph - N/A   Clear
3:55 AM 42.8 °F 39.3 °F 19.4 °F 39% 30.11 in 10.0 mi North 5.8 mph - N/A   Clear
4:15 AM 42.8 °F 40.1 °F 19.4 °F 39% 30.11 in 10.0 mi NW 4.6 mph - N/A   Scattered Clouds
4:35 AM 44.6 °F 40.7 °F 21.2 °F 39% 30.11 in 10.0 mi WNW 6.9 mph - N/A   Mostly Cloudy
4:55 AM 46.4 °F 42.9 °F 23.0 °F 40% 30.11 in 10.0 mi NW 6.9 mph - N/A   Mostly Cloudy
5:15 AM 48.2 °F - 23.0 °F 37% 30.11 in 10.0 mi NNW 6.9 mph - N/A   Scattered Clouds
5:35 AM 48.2 °F - 23.0 °F 37% 30.12 in 10.0 mi NNW 6.9 mph - N/A   Scattered Clouds
5:50 AM 48.2 °F - 23.0 °F 37% 30.12 in 10.0 mi Calm Calm - N/A   Partly Cloudy
6:50 AM 44.6 °F 39.7 °F 24.8 °F 46% 30.15 in 10.0 mi SE 9.2 mph - N/A   Partly Cloudy
7:50 AM 46.4 °F 40.1 °F 28.4 °F 50% 30.16 in 10.0 mi SSE 15.0 mph - N/A   Partly Cloudy
8:50 AM 50.0 °F - 30.2 °F 47% 30.17 in 10.0 mi SE 13.8 mph - N/A   Partly Cloudy
9:50 AM 55.4 °F - 28.4 °F 36% 30.18 in 10.0 mi SE 12.7 mph - N/A   Clear
10:50 AM 57.2 °F - 28.4 °F 33% 30.18 in 10.0 mi SE 8.1 mph - N/A   Clear
11:50 AM 59.0 °F - 24.8 °F 27% 30.17 in 10.0 mi SW 5.8 mph - N/A   Partly Cloudy
12:50 PM 62.6 °F - 26.6 °F 26% 30.16 in 10.0 mi WSW 9.2 mph - N/A   Partly Cloudy
1:50 PM 64.4 °F - 24.8 °F 22% 30.13 in 10.0 mi SSW 11.5 mph - N/A   Scattered Clouds
2:50 PM 66.2 °F - 23.0 °F 19% 30.10 in 10.0 mi NW 10.4 mph 18.4 mph N/A   Mostly Cloudy
3:50 PM 66.2 °F - 23.0 °F 19% 30.07 in 10.0 mi NW 6.9 mph - N/A   Mostly Cloudy
4:50 PM 66.2 °F - 23.0 °F 19% 30.05 in 10.0 mi WSW 6.9 mph - N/A   Mostly Cloudy
5:50 PM 66.2 °F - 23.0 °F 19% 30.03 in 10.0 mi Calm Calm - N/A   Mostly Cloudy
7:50 PM 59.0 °F - 21.2 °F 23% 30.03 in 10.0 mi SE 4.6 mph - N/A   Scattered Clouds
8:50 PM 55.4 °F - 17.6 °F 23% 30.05 in 10.0 mi Calm Calm - N/A   Clear
9:50 PM 48.2 °F - 15.8 °F 27% 30.05 in 10.0 mi South 5.8 mph - N/A   Clear
10:15 PM 50.0 °F - 17.6 °F 28% 30.05 in 10.0 mi South 4.6 mph - N/A   Clear
10:35 PM 51.8 °F - 17.6 °F 26% 30.05 in 10.0 mi South 3.5 mph - N/A   Clear
11:15 PM 50.0 °F - 17.6 °F 28% 30.05 in 10.0 mi North 6.9 mph - N/A   Clear
11:35 PM 50.0 °F - 17.6 °F 28% 30.05 in 10.0 mi NNE 5.8 mph - N/A   Clear